• In Uzbekistan
  • List of Countries
  • For 7 days
  • Water Temperature
  • Satellite Maps
  • Weather Map
  • Weather Widgets
  • user-avatar
    Login

    Hourly Weather Saint John's

    Today, 20 January, Saturday

    Time Temperature Precipitation Wind Pressure Humidity
    00:00 -10°C° 0 mm 8 mps 746 mmHg 78%
    01:00 -10°C° 0 mm 8 mps 747 mmHg 78%
    02:00 -11°C° 0 mm 7 mps 747 mmHg 78%
    03:00 -10°C° 0 mm 6 mps 748 mmHg 77%
    04:00 -10°C° 0 mm 6 mps 748 mmHg 77%
    05:00 -11°C° 0 mm 5 mps 749 mmHg 77%
    06:00 -10°C° 0 mm 4 mps 749 mmHg 76%
    07:00 -10°C° 0 mm 4 mps 750 mmHg 75%
    08:00 -10°C° 0 mm 4 mps 750 mmHg 74%
    09:00 -9°C° 0 mm 4 mps 750 mmHg 72%
    10:00 -8°C° 0 mm 5 mps 750 mmHg 70%
    11:00 -7°C° 0 mm 5 mps 750 mmHg 67%
    12:00 -6°C° 0 mm 5 mps 750 mmHg 70%
    13:00 -6°C° 0 mm 6 mps 749 mmHg 72%
    14:00 -5°C° 0 mm 6 mps 748 mmHg 74%
    15:00 -5°C° 0.1 mm 6 mps 748 mmHg 78%
    16:00 -6°C° 0.1 mm 7 mps 747 mmHg 82%
    17:00 -6°C° 0.1 mm 7 mps 747 mmHg 86%
    18:00 -6°C° 0.7 mm 7 mps 746 mmHg 88%
    19:00 -6°C° 0.7 mm 7 mps 744 mmHg 90%
    20:00 -6°C° 0.7 mm 7 mps 743 mmHg 92%
    21:00 -5°C° 1 mm 8 mps 741 mmHg 93%
    22:00 -4°C° 1 mm 8 mps 740 mmHg 93%
    23:00 -3°C° 1 mm 9 mps 738 mmHg 93%

    Tomorrow, 21 January, Sunday

    Time Temperature Precipitation Wind Pressure Humidity
    00:00 -3°C° 0.4 mm 9 mps 737 mmHg 90%
    01:00 -3°C° 0.4 mm 9 mps 737 mmHg 87%
    02:00 -3°C° 0.4 mm 9 mps 736 mmHg 85%
    03:00 -3°C° 0 mm 9 mps 737 mmHg 83%
    04:00 -3°C° 0 mm 10 mps 738 mmHg 81%
    05:00 -4°C° 0 mm 10 mps 738 mmHg 79%
    06:00 -4°C° 0 mm 9 mps 739 mmHg 80%
    07:00 -4°C° 0 mm 9 mps 739 mmHg 81%
    08:00 -3°C° 0 mm 9 mps 740 mmHg 82%
    09:00 -3°C° 0 mm 9 mps 741 mmHg 81%
    10:00 -2°C° 0 mm 8 mps 741 mmHg 81%
    11:00 -2°C° 0 mm 8 mps 741 mmHg 81%
    12:00 -2°C° 0 mm 8 mps 742 mmHg 79%
    13:00 -2°C° 0 mm 8 mps 742 mmHg 77%
    14:00 -2°C° 0 mm 8 mps 742 mmHg 75%
    15:00 -4°C° 0 mm 9 mps 743 mmHg 74%
    16:00 -4°C° 0 mm 9 mps 744 mmHg 74%
    17:00 -5°C° 0 mm 9 mps 745 mmHg 73%
    18:00 -6°C° 0 mm 9 mps 746 mmHg 73%
    19:00 -8°C° 0 mm 10 mps 747 mmHg 73%
    20:00 -9°C° 0 mm 10 mps 747 mmHg 73%
    21:00 -10°C° 0 mm 10 mps 748 mmHg 73%
    22:00 -10°C° 0 mm 10 mps 748 mmHg 73%
    23:00 -12°C° 0 mm 10 mps 749 mmHg 72%

    Day after tomorrow, 22 January, Monday

    Time Temperature Precipitation Wind Pressure Humidity
    00:00 -12°C° 0 mm 10 mps 749 mmHg 72%
    01:00 -12°C° 0 mm 10 mps 749 mmHg 72%
    02:00 -12°C° 0 mm 10 mps 749 mmHg 72%
    03:00 -12°C° 0 mm 10 mps 749 mmHg 71%
    04:00 -12°C° 0 mm 11 mps 750 mmHg 70%
    05:00 -12°C° 0 mm 11 mps 750 mmHg 70%
    06:00 -12°C° 0 mm 11 mps 750 mmHg 70%
    07:00 -12°C° 0 mm 12 mps 750 mmHg 70%
    08:00 -12°C° 0 mm 12 mps 751 mmHg 70%
    09:00 -12°C° 0 mm 12 mps 751 mmHg 69%
    10:00 -12°C° 0 mm 12 mps 751 mmHg 68%
    11:00 -12°C° 0 mm 12 mps 751 mmHg 67%
    12:00 -12°C° 0 mm 12 mps 751 mmHg 68%
    13:00 -12°C° 0 mm 11 mps 752 mmHg 69%
    14:00 -11°C° 0 mm 11 mps 752 mmHg 69%
    15:00 -11°C° 0 mm 11 mps 753 mmHg 71%
    16:00 -10°C° 0 mm 10 mps 753 mmHg 72%
    17:00 -12°C° 0 mm 10 mps 754 mmHg 73%
    18:00 -12°C° 0 mm 10 mps 755 mmHg 74%
    19:00 -12°C° 0 mm 10 mps 756 mmHg 74%
    20:00 -12°C° 0 mm 10 mps 757 mmHg 75%
    21:00 -13°C° 0 mm 10 mps 757 mmHg 76%
    22:00 -13°C° 0 mm 10 mps 758 mmHg 76%
    23:00 -12°C° 0 mm 9 mps 758 mmHg 77%

    23 January, Tuesday

    Time Temperature Precipitation Wind Pressure Humidity
    00:00 -12°C° 0 mm 9 mps 758 mmHg 77%
    01:00 -12°C° 0 mm 9 mps 759 mmHg 77%
    02:00 -12°C° 0 mm 9 mps 759 mmHg 77%
    03:00 -12°C° 0 mm 9 mps 760 mmHg 77%
    04:00 -12°C° 0 mm 9 mps 761 mmHg 78%
    05:00 -12°C° 0 mm 9 mps 761 mmHg 78%
    06:00 -12°C° 0 mm 8 mps 762 mmHg 78%
    07:00 -12°C° 0 mm 8 mps 763 mmHg 78%
    08:00 -12°C° 0 mm 7 mps 764 mmHg 78%
    09:00 -11°C° 0 mm 7 mps 764 mmHg 76%
    10:00 -10°C° 0 mm 6 mps 765 mmHg 75%
    11:00 -9°C° 0 mm 6 mps 765 mmHg 73%
    12:00 -8°C° 0 mm 5 mps 765 mmHg 72%
    13:00 -7°C° 0 mm 5 mps 765 mmHg 72%
    14:00 -7°C° 0 mm 4 mps 765 mmHg 71%
    15:00 -7°C° 0 mm 4 mps 766 mmHg 73%
    16:00 -7°C° 0 mm 3 mps 766 mmHg 75%
    17:00 -6°C° 0 mm 2 mps 766 mmHg 77%
    18:00 -6°C° 0 mm 2 mps 766 mmHg 78%
    19:00 -6°C° 0 mm 2 mps 766 mmHg 78%
    20:00 -4°C° 0 mm 1 mps 766 mmHg 79%
    21:00 -6°C° 0 mm 2 mps 766 mmHg 78%
    22:00 -7°C° 0 mm 3 mps 765 mmHg 78%
    23:00 -8°C° 0 mm 4 mps 765 mmHg 77%

    24 January, Wednesday

    Time Temperature Precipitation Wind Pressure Humidity
    00:00 -7°C° 0 mm 5 mps 764 mmHg 78%
    01:00 -6°C° 0 mm 5 mps 764 mmHg 78%
    02:00 -6°C° 0 mm 6 mps 763 mmHg 78%
    03:00 -6°C° 0 mm 7 mps 762 mmHg 78%
    04:00 -6°C° 0 mm 8 mps 761 mmHg 79%
    05:00 -5°C° 0 mm 9 mps 760 mmHg 79%
    06:00 -6°C° 0.2 mm 11 mps 758 mmHg 82%
    07:00 -5°C° 0.2 mm 13 mps 757 mmHg 84%
    08:00 -5°C° 0.2 mm 14 mps 755 mmHg 86%
    09:00 -4°C° 0.6 mm 15 mps 753 mmHg 87%
    10:00 -3°C° 0.6 mm 16 mps 751 mmHg 88%
    11:00 -2°C° 0.6 mm 16 mps 749 mmHg 89%
    12:00 -1°C° 0.4 mm 15 mps 747 mmHg 91%
    13:00 -1°C° 0.4 mm 13 mps 745 mmHg 93%
    14:00 0°C° 0.4 mm 12 mps 744 mmHg 96%
    15:00 -1°C° 0 mm 11 mps 744 mmHg 94%
    16:00 -1°C° 0 mm 9 mps 744 mmHg 92%
    17:00 -1°C° 0 mm 8 mps 744 mmHg 90%
    18:00 -1°C° 0 mm 8 mps 744 mmHg 90%
    19:00 -1°C° 0 mm 8 mps 744 mmHg 90%
    20:00 -1°C° 0 mm 7 mps 744 mmHg 90%
    21:00 -1°C° 0.1 mm 7 mps 744 mmHg 90%
    22:00 -1°C° 0.1 mm 7 mps 743 mmHg 89%
    23:00 -1°C° 0.1 mm 7 mps 743 mmHg 88%

    25 January, Thursday

    Time Temperature Precipitation Wind Pressure Humidity
    00:00 -2°C° 0.1 mm 7 mps 743 mmHg 88%
    01:00 -2°C° 0.1 mm 7 mps 743 mmHg 88%
    02:00 -2°C° 0.1 mm 7 mps 742 mmHg 88%
    03:00 -2°C° 0.1 mm 8 mps 742 mmHg 88%
    04:00 -2°C° 0.1 mm 8 mps 742 mmHg 88%
    05:00 -2°C° 0.1 mm 8 mps 742 mmHg 87%
    06:00 -3°C° 0.1 mm 9 mps 742 mmHg 86%
    07:00 -3°C° 0.1 mm 9 mps 741 mmHg 85%
    08:00 -3°C° 0.1 mm 9 mps 741 mmHg 83%
    09:00 -3°C° 0.1 mm 9 mps 741 mmHg 81%
    10:00 -4°C° 0.1 mm 10 mps 742 mmHg 79%
    11:00 -4°C° 0.1 mm 10 mps 742 mmHg 76%
    12:00 -4°C° 0 mm 10 mps 742 mmHg 75%
    13:00 -4°C° 0 mm 11 mps 742 mmHg 74%
    14:00 -6°C° 0 mm 11 mps 742 mmHg 73%
    15:00 -6°C° 0 mm 11 mps 743 mmHg 73%
    16:00 -7°C° 0 mm 11 mps 743 mmHg 72%
    17:00 -7°C° 0 mm 11 mps 743 mmHg 72%
    18:00 -7°C° 0 mm 11 mps 744 mmHg 72%
    19:00 -8°C° 0 mm 12 mps 744 mmHg 72%
    20:00 -8°C° 0 mm 12 mps 744 mmHg 71%
    21:00 -8°C° 0 mm 12 mps 744 mmHg 72%
    22:00 -10°C° 0 mm 12 mps 744 mmHg 72%
    23:00 -10°C° 0 mm 13 mps 744 mmHg 73%
    Show more